www.pogodaiklimat.ru

Погода и климат >> Архив погоды >> Парагвай >> Марискал-Эстигар


ПОГОДА в Марискал-Эстигаре

  • Прогноз погоды в Марискал-Эстигаре
  • Монитор погоды в Марискал-Эстигаре

АРХИВ ПОГОДЫ в Марискал-Эстигаре

Время (UTC), дата Ветер
(напр.,м/с)
 
Видим.   Явления Облачность Т
(С)
Тd
(С)
f
(%)
Тe
(С)
Тes
(С)
Комфортность P
(гПа)
Po
(гПа)
Тmin
(С)
Tmax
(С)
R
(мм)
R24
(мм)
S
(см)
12 14.03 Ю 3 20 км 10/10 240 м
[St]
+22.8 +22.8 100 +31 +31 очень
душно
1011.9 998.6 +22.8 0.8
15 14.03 Ю 2 20 км гроза без осадков 10/8 240 м
[Cb cap Ac As]
+24.4 +23.7 96 +33 +34 очень
душно
1012.8 993.5 3
21 14.03 Ю 2 20 км гроза без осадков 8/6 450 м
[Cb cap Ac As]
+28.4 +23.6 75 +39 +39 очень
душно
1007.7 988.8
00 15.03 Ю 2 20 км гроза без осадков 6/5 300 м
[Cb cap Ac As]
+26.2 +24.5 90 +37 +37 очень
душно
1009.2 990.1 +29.5
06 15.03 В 2 20 км 10/10 570 м
[Sc]
+24.8 +23.7 94 +34 +34 очень
душно
1010.3 991.1
12 15.03 В 2 20 км гроза без осадков 10/8 300 м
[Cb cap Ac As]
+24.6 +23.8 95 +33 +34 очень
душно
1011.7 992.5 +22.8 0.5
15 15.03 С 2 20 км 9/5 450 м
[Cu Sc Ac As]
+29.6 +24.6 75 +42 +46 опасность
перегрева
1011.0 992.1
18 15.03 С 2 20 км гроза без осадков 8/5 360 м
[Cb cap Ac As]
+31.0 +23.7 65 +42 +46 опасность
перегрева
1007.9 989.2
00 16.03 СВ 2 20 км гроза без осадков 6/4 600 м
[Cb cap Ac und]
+27.6 +25.5 88 +40 +40 очень
душно
1007.2 988.3 +32.0
06 16.03 штиль 0 5000 м гроза, ливневой дождь 8/5 300 м
[Cb cap As op]
+24.8 +23.4 92 +33 +33 очень
душно
1008.1 989.0 2
09 16.03 З 2 20 км 10/10 240 м
[St]
+24.8 +23.8 94 +34 +34 очень
душно
1008.4 989.3
12 16.03 В 4 20 км {морось} 10/10 270 м
[St]
+22.8 +21.6 93 +30 +30 очень
душно
1009.3 990.0 +22.6 2
15 16.03 В 4 20 км 10/10 300 м
[Sc]
+25.4 +22.0 81 +33 +33 очень
душно
1010.6 991.4
21 16.03 В 6 20 км гроза без осадков 9/9 300 м
[Cb cap As trans]
+24.8 +22.1 85 +32 +32 очень
душно
1006.7 987.6
00 17.03 В 4 3000 м гроза, ливневой дождь 10/9 180 м
[Cb cap As op]
+22.6 +21.8 95 +30 +30 очень
душно
1009.3 990.0 +27.6 12
03 17.03 В 3 5000 м сильн. морось {гроза} 10/9 180 м
[Cb cap]
+22.6 +21.9 96 +30 +30 очень
душно
1010.0 990.7 8
09 17.03 штиль 0 20 км гроза без осадков 10/9 270 м
[Cb cap As trans]
+22.6 +21.9 96 +30 +30 очень
душно
1007.2 988.0 0.8
12 17.03 штиль 0 5000 м дождь 10/10 180 м
[Sc]
+23.2 +22.9 98 +32 +32 очень
душно
1008.8 989.6 +22.6 0.3
18 17.03 штиль 0 20 км 10/10 300 м
[Sc]
+25.0 +23.3 90 +33 +33 очень
душно
1006.7 987.6
21 17.03 штиль 0 20 км {морось} 8/8 500 м
[Sc]
+26.4 +25.7 96 +39 +39 очень
душно
1005.8 986.8 0.4
00 18.03 штиль 0 20 км 4/0 2000 м
[Ac trans]
+24.0 +22.7 92 +31 +31 очень
душно
1008.0 988.8 +27.0
06 18.03 штиль 0 20 км {морось} 10/10 270 м
[St]
+22.6 +21.9 96 +30 +30 очень
душно
1009.9 990.6 0.8
09 18.03 штиль 0 7000 м слаб. морось 10/10 180 м
[St]
+22.2 +21.9 98 +29 +29 очень
душно
1009.5 990.1 0.4
12 18.03 штиль 0 20 км {морось} 10/10 180 м
[St]
+22.4 +21.7 96 +30 +30 очень
душно
1012.7 993.3 +21.8 0.1
15 18.03 штиль 0 20 км 10/10 450 м
[Sc]
+25.0 +22.1 84 +32 +32 очень
душно
1012.3 993.1
18 18.03 штиль 0 20 км 10/10 500 м
[Sc]
+27.6 +22.4 73 +36 +36 очень
душно
1009.2 990.2
21 18.03 Ю 3 20 км 10/10 500 м
[Sc]
+26.6 +22.9 80 +35 +35 очень
душно
1007.0 988.0
00 19.03 штиль 0 20 км 10/10 500 м
[St]
+25.0 +23.3 90 +33 +33 очень
душно
1008.3 989.2 +28.5
09 19.03 штиль 0 20 км 10/10 500 м
[Sc]
+23.2 +22.9 98 +32 +32 очень
душно
1008.0 988.8
12 19.03 ЮВ 2 20 км 9/9 420 м
[Cu Sc]
+23.6 +22.9 96 +31 +32 очень
душно
1009.8 990.6 +22.4 0.3
15 19.03 ЮВ 2 20 км 8/8 570 м
[Cu Sc]
+29.4 +23.6 71 +40 +44 очень
душно
1009.7 990.8
18 19.03 штиль 0 20 км зарница 8/5 450 м
[Cb cap Ac As]
+30.2 +25.7 77 +45 +50 опасность
перегрева
1006.4 987.6
00 20.03 Ю 2 20 км зарница {гроза} 5/4 600 м
[Cb cap Ac cuf]
+26.4 +25.7 96 +39 +39 очень
душно
1007.5 988.5 +31.5 4
09 20.03 Ю 5 4000 м гроза, ливневой дождь 10/8 180 м
[Cb cap As op]
+21.2 +21.0 99 +27 +27 душно 1011.5 992.0 14
12 20.03 Ю 5 20 км гроза без осадков 10/8 300 м
[Cb cap Ac As]
+20.4 +20.0 98 +24 +25 комфорт 1015.3 995.7 +20.4 11
15 20.03 Ю 5 20 км 10/10 270 м
[Sc]
+22.0 +21.8 99 +29 +29 очень
душно
1016.4 996.9 5
18 20.03 Ю 8 20 км 10/10 300 м
[Sc]
+21.4 +19.4 88 +26 +26 душно 1018.4 995.3
21 20.03 ЮЗ 7 20 км 10/10 300 м
[Sc]
+20.4 +18.4 88 +24 +24 комфорт 1013.7 994.1
06 21.03 ЮЗ 6 5000 м слаб. дождь 10/8 240 м
[Sc As op]
+17.0 +16.9 99 +16 +16 1018.7 998.9 1

 

Местоположение метеостанции Марискал-Эстигар (Парагвай): широта -22.01 долгота -60.60 высота над уровнем моря 172 м.

В архиве по умолчанию представлена погода в Марискал-Эстигаре за последнюю неделю. Архивные данные за месяц целиком и за предыдущие месяцы, начиная с января 2011 года, Вы можете получить, выбрав интересующий диапазон дат из раскрывающегося списка и нажав кнопку "Ввод!".


*Определитесь, кто Вы:
робот инопланетянин человек

Внимание! Время в таблицах - всемирное. Для получения местного времени необходимо прибавить поправку, которая равна -4 ч.

Смотрите также архив погоды в соседних городах и на ближайших метеорологических станциях:

Погода в Пратс-Гиле (Парагвай) (120 км)
Погода в Посо Колорадо (Парагвай) (232 км)
Погода в Пуэрто-Касадо (Парагвай) (284 км)
Погода в Лас-Ломитасе (Аргентина) (299 км)
Погода в Вилья-Монтесе (Боливия) (307 км)
Погода в Якуибе (Боливия) (315 км)
Погода в Порто Муртиньо (Мату-Гросу-ду-Сул, Бразилия) (317 км)
Погода в Тартагале (Аргентина) (336 км)
Погода в Грал Бругуез (Парагвай) (355 км)
Погода в Консепсьоне (Парагвай) (373 км)

Пояснения к столбцам:

Ветер - указаны скорость ветра в м/с - средняя за 10 мин, порывы в срок и между сроками (в фигурных скобках) и направление, откуда дует ветер: С - северный, СВ - северо-восточный, В - восточный, ЮВ - юго-восточный, Ю - южный, ЮЗ - юго-западный, З - западный, СЗ - северо-западный.
Видимость - горизонтальная дальность видимости в метрах или километрах. При видимости от 1 до 10 км при отсутствии осадков обычно наблюдается дымка, при ухудшении видимости до 1 км и менее - туман. В сухую погоду видимость может ухудшаться дымом, пылью или мглою.
Явления - указаны атмосферные явления, наблюдавшиеся в срок или в последний час перед сроком; фигурными скобками обозначены явления, наблюдавшиеся между сроками (за 1-3 часа до срока); квадратными скобками обозначены град или гололедные отложения с указанием их диаметра в мм.
Облачность - указаны через наклонную черту общая и нижняя облачность в баллах и высота нижней границы облаков в метрах; квадратными скобками обозначены формы облаков: Ci - перистые, Cs - перисто-слоистые, Cc - перисто-кучевые, Ac - высококучевые, As - высокослоистые, Sc - слоисто-кучевые, Ns - слоисто-дождевые, Cu - кучевые, Cb - кучево-дождевые. Подробнее классификацию облаков см. в Атласе облаков (PDF).
T - Температура воздуха - температура, измеренная на высоте 2 м над землей.
Td - Температура точки росы - температура, при понижении до которой содержащийся в воздухе водяной пар достигнет насыщения.
f - Относительная влажность воздуха - влажноcть воздуха, измеренная на высоте 2 м над землей.
Te - Эффективная температура - температура, которую ощущает одетый по сезону человек в тени. Характеристика душности погоды. При расчете учитывается влияние влажности воздуха и скорости ветра на теплоощущения человека.
Tes - Эффективная температура на солнце - температура, которую ощущает человек, с поправкой на солнечный нагрев. Характеристика знойности погоды. Зависит от высоты солнца над горизонтом, облачности и скорости ветра. Ночью, в пасмурную погоду, а также при ветре 12 м/с и более поправка равна нулю.
P - Атмосферное давление - приведенное к уровню моря атмосферное давление.
Po - Атмосферное давление - измеренное на уровне метеостанции атмосферное давление.
Tmin - Минимальная температура - минимум температуры воздуха на высоте 2 м над землей.
Tmax - Максимальная температура - максимум температуры воздуха на высоте 2 м над землей.
R - Количество осадков - Количество выпавших осадков за период времени, мм. При наведении курсора мыши на число - период времени, за который выпало указанное количество осадков.
R24 - Количество осадков - Количество выпавших осадков за 24 часа, мм.
S - Снежный покров - Высота снежного покрова, см. При наведении курсора мыши на число - состояние снежного покрова и степень покрытия местности в баллах.